Location: Unspecified
(34.4950°S, 58.5160°W)
Time: 15:12:30
(UTC+00:00)

Cosmos 1655 Rocket - Pass Details

Date: 09 July 2022
Orbit: 971 x 1005 km, 83.0° (Epoch: 11 August)

Event Time Altitude Azimuth Distance (km) Brightness Sun altitude
Rises 23:34:11 0° 320° (NW) 3,721 7.7 -31.4°
Reaches altitude 10° 23:37:13 10° 307° (NW) 2,782 7.0 -32.0°
Maximum altitude 23:42:16 24° 254° (WSW) 1,952 6.1 -33.1°
Drops below altitude 10° 23:47:23 10° 202° (SSW) 2,805 6.5 -34.1°
Sets 23:50:29 0° 188° (S) 3,759 7.1 -34.7°
